Simultaneous Nadir Overpasses (SNOs) Predictions

Prediction of SNOs between NOAA-19 and TERRA Satellite Orbit:

Table of predicted SNOs for the next 14.0 days since TLE Epoch: 8/30/2024
Index Date (NOAA-19) Time (NOAA-19) Lat,Lon (NOAA-19) SZA (NOAA-19 ) Date (TERRA) Time (TERRA) Lat,Lon (TERRA) SZA (TERRA ) Distance(km) Time Diff (sec)
1 09/01/2024 17:20:36 75.02, -82.93 67.05 09/01/2024 17:20:41 75.03, -82.88 67.05 1.68 5
2 09/03/2024 20:19:33 74.60,-128.83 67.41 09/03/2024 20:20:10 74.59,-128.83 67.41 0.09 37
3 09/03/2024 21:10:15 -75.55, 41.33 111.65 09/03/2024 21:09:13 -75.54, 41.26 111.66 2.63 62
4 09/05/2024 23:18:32 74.05,-174.96 67.68 09/05/2024 23:19:40 74.06,-174.93 67.68 0.94 68
5 09/06/2024 00:09:16 -74.96, -5.18 111.44 09/06/2024 00:08:44 -74.97, -5.11 111.43 2.26 32
6 09/08/2024 03:08:10 -74.67, -50.68 110.93 09/08/2024 03:08:09 -74.66, -50.75 110.94 2.52 1
7 09/10/2024 06:07:12 -73.98, -97.20 110.79 09/10/2024 06:07:40 -73.98, -97.16 110.79 1.55 28
8 09/10/2024 06:57:42 75.09, 73.21 70.30 09/10/2024 06:56:38 75.08, 73.13 70.29 2.87 64
9 09/12/2024 09:06:11 -73.40,-143.27 110.53 09/12/2024 09:07:08 -73.41,-143.22 110.53 2.11 57



Historial Predications of SNOs between NOAA-19 and TERRA
